Regional Weather Roundup
Issued by NWS Boston, MA

Current Version | Previous Version | Text Only | Print | Product List | Glossary Off
Versions: 1 2 3 4 5 6 7 8 9 10 11 12 13 14 15 16 17 18 19 20 21 22 23 24 25 26 27 28
000 ASUS41 KBOX 200510 RWRBOX REGIONAL WEATHER ROUNDUP NATIONAL WEATHER SERVICE TAUNTON MA 1200 AM EST TUE FEB 20 2018 NOTE: "FAIR" INDICATES FEW OR NO CLOUDS BELOW 12,000 FEET WITH NO SIGNIFICANT WEATHER AND/OR OBSTRUCTIONS TO VISIBILITY. MAZALL-200600- EASTERN MASSACHUSETTS CITY SKY/WX TMP DP RH WIND PRES REMARKS BOSTON LGT RAIN 50 48 93 SW18 30.28F BEVERLY LGT RAIN 50 48 93 SW14G21 30.26F LAWRENCE CLOUDY 50 46 86 SW9 30.26F BEDFORD CLOUDY 49 47 93 SW16G22 30.26F BLUE HILL N/A 48 48 100 SW20G28 30.27S NORWOOD CLOUDY 53 50 89 SW9 30.29F MARSHFIELD CLOUDY 52 52 100 SW13G23 30.29F PLYMOUTH CLOUDY 52 50 93 SW14G23 30.32F TAUNTON CLOUDY 50 48 93 SW10G20 30.32F NEW BEDFORD CLOUDY 50 50 100 SW13G21 30.34S $$ MAZALL-200600- CAPE COD AND THE ISLANDS CITY SKY/WX TMP DP RH WIND PRES REMARKS FALMOUTH CLOUDY 52 52 100 SW22G31 30.35 HYANNIS N/A N/A N/A N/A MISG 30.35S CHATHAM LGT RAIN 44 44 100 SW8 30.37F PROVINCETOWN CLOUDY 45 44 97 SW20G31 30.32F NANTUCKET LGT RAIN 45 45 100 S12 30.37F MARTHAS VNYRD LGT RAIN N/A N/A N/A SW9 30.36F $$ MAZALL-200600- CENTRAL AND WESTERN MASSACHUSETTS CITY SKY/WX TMP DP RH WIND PRES REMARKS WORCESTER RAIN 47 46 97 SW20G26 30.26F FOG FITCHBURG LGT RAIN 50 47 89 VRB7 30.26F ORANGE CLOUDY 43 43 100 S7 30.27F SPRINGFIELD CLOUDY 45 44 99 S8 30.27F WESTFIELD CLOUDY 43 43 100 S9 30.27F NORTH ADAMS LGT RAIN 42 40 92 E12 30.24S PITTSFIELD LGT RAIN 45 42 89 SW12G23 30.22F $$ RIZALL-200600- RHODE ISLAND CITY SKY/WX TMP DP RH WIND PRES REMARKS PROVIDENCE CLOUDY 51 50 96 SW15 30.34S NEWPORT CLOUDY 47 47 100 SW8 30.34S BLOCK ISLAND CLOUDY 47 46 97 SW9 30.36S SMITHFIELD LGT RAIN 49 48 97 SW13G22 30.31F WESTERLY CLOUDY 48 48 100 SW6 30.35F FOG $$ CTZALL-200600- CONNECTICUT CITY SKY/WX TMP DP RH WIND PRES REMARKS BRADLEY INTL CLOUDY 45 45 100 S7 30.29F FOG HARTFORD CLOUDY 48 47 96 S6 30.29F FOG BRIDGEPORT FOG 44 42 93 SE5 30.31F VSB 1/4 DANBURY FOG N/A N/A N/A VRB3 30.31F VSB 1 GROTON CLOUDY 48 47 96 SW6 30.33F FOG NEW HAVEN FOG 45 43 93 SE5 30.31F VSB 1/2 CHESTER CLOUDY 48 48 100 VRB7G14 30.31F FOG MERIDEN FOG 45 45 100 S6 30.30F VSB 3/4 WILLIMANTIC LGT RAIN 51 49 92 VRB5 30.31F FOG OXFORD LGT RAIN 44 44 100 S6 30.29F VSB 1/2 $$ MEZ002-015-021-024-NHZ003-005-008-011-012-014-VTZ005-008-200600- NORTHERN NEW ENGLAND CITY SKY/WX TMP DP RH WIND PRES REMARKS PORTLAND ME CLOUDY 39 39 100 S3 30.24F BANGOR ME CLOUDY 37 36 96 S3 30.24F CONCORD NH CLOUDY 41 39 93 SE6 30.22F MANCHESTER NH CLOUDY 44 43 96 S6 30.23F NASHUA NH CLOUDY 47 46 97 VRB5 30.25F PORTSMOUTH NH LGT RAIN 43 43 99 SW7 30.23F JAFFREY NH CLOUDY 43 43 100 S10G17 30.23F KEENE NH CLOUDY 41 40 96 S3 30.25S BURLINGTON VT CLOUDY 43 38 82 S13G22 30.16S MT. WASHINGTON NOT AVBL $$ NYZ052-076-200600- EASTERN NEW YORK CITY SKY/WX TMP DP RH WIND PRES REMARKS ALBANY LGT RAIN 43 39 86 S13 30.23S NEW YORK CITY DRZL/FOG 47 46 97 SE5 30.30F VSB 1/2 $$ ANZALL-200600- MARINE OBSERVATIONS STATION/POSITION TIME TEMP WIND PRES VSBY WAVE AIR SEA DIR/SP/G HT/PER (UTC) (F) (DEG/KT/KT) (MB) (MI) (FT/S) BOSTON BUOY 0450 47 40 200/ 16/ 21 1024.0F 5/ 9 BUZZARDS BAY 0400 44 200/ 17/ 18 1028.3F NANTUCKET SOUND 0350 42 38 200/ 12/ 14 1029.0 1/ 4 MASS BAY-STELLWA 0404 43 39 1024.2F 5/11 ISLE OF SHOALS 0400 44 200/ 12/ 13 1024.5F S OF BLOCK IS 0443 40 N/A 4/12 $$ ......................KEY......................... SKY/WX - SKY CONDITION/PRESENT WEATHER TMP - TEMPERATURE IN FAHRENHEIT DWPT - DEWPOINT IN FAHRENHEIT RH - RELATIVE HUMIDITY IN PERCENT WIND - DIRECTION AND SPEED IN MPH PRES - MEAN SEA LEVEL PRESSURE IN INCHES OF HG WCI - WIND CHILL INDEX VSB - VISIBILITY IN MILES HX - HEAT INDEX TC - TEMPERATURE IN CELSIUS VRB - VARIABLE WIND DIRECTION N/A - NOT AVAILABLE

USA.gov is the U.S. government's official web portal to all federal, state and local government web resources and services.